Location: La Chapelle
(48.3135°N, 1.3085°W)
Time: 21:34:00
(UTC+00:00)

Cosmos 1821 Rocket - Pass Details

Date: 03 March 2021
Orbit: 945 x 1005 km, 82.9° (Epoch: 14 April)

Event Time Altitude Azimuth Distance (km) Brightness Sun altitude
Exits shadow 20:42:00 57° 40° (NE) 1,136 4.1 -28.4°
Drops below altitude 10° 20:46:59 10° 13° (NNE) 2,705 6.4 -29.1°
Sets 20:49:29 0° 12° (NNE) 3,648 7.2 -29.5°
